Change the Weather History Date:

Wednesday, January 11, 2012

  Actual Average Record
Temperature  
Mean Temperature 27 °F 25 °F  
Max Temperature 42 °F 39 °F 68 °F (2006)
Min Temperature 11 °F 11 °F -26 °F (1892)
Degree Days  
Heating Degree Days 38 40  
Month to date heating degree days 356 445  
Since 1 July heating degree days 2922 3225  
Cooling Degree Days 0 0  
Month to date cooling degree days 0 0  
Year to date cooling degree days 0 0  
Moisture  
Dew Point 17 °F    
Average Humidity 67    
Maximum Humidity 88    
Minimum Humidity 45    
Precipitation  
Precipitation T in 0.01 in 0.40 in (1905)
Month to date precipitation 0.07 0.13  
Year to date precipitation 0.07 0.13  
Snow  
Snow T in 0.20 in 6.00 in (1905)
Month to date snowfall 1.4 1.8  
Since 1 July snowfall 5.9 12.6  
Snow Depth 0.00 in    
Sea Level Pressure  
Sea Level Pressure 30.01 in    
Wind  
Wind Speed 21 mph (NNW)    
Max Wind Speed 37 mph    
Max Gust Speed 51 mph    
Visibility 10 miles    
Events      
T = Trace of Precipitation, MM = Missing Value Source: NWS Daily Summary

Daily Weather History Graph

Daily Weather History Graph

Search for Another Location

Airport or City:

Trip Planner

Search our weather history database for the weather conditions in past years. The results will help you decide how hot, cold, wet, or windy it might be!

Date:

Astronomy

Jan. 11, 2012 Rise Set
Actual Time 8:07 AM CST 5:34 PM CST
Civil Twilight 7:36 AM CST 6:04 PM CST
Nautical Twilight 7:02 AM CST 6:38 PM CST
Astronomical Twilight 6:29 AM CST 7:11 PM CST
Moon 8:36 PM CST (1/11) 9:18 AM CST (1/11)
Length of Visible Light 10h 27m
Length of Day
9h 26m
Waning Gibbous, 93% of the Moon is Illuminated
Jan 11
Waning Gibbous
Jan 16
Last Quarter
Jan 23
New
Jan 30
First Quarter
Feb 7
Full

Hourly Weather History & Observations

Time (CST) Temp. Windchill Dew Point Humidity Pressure Visibility Wind Dir Wind Speed Gust Speed Precip Events Conditions
12:53 AM 33.1 °F 23.9 °F 23.0 °F 66% 29.73 in 10.0 mi NW 12.7 mph - N/A   Clear
1:53 AM 42.1 °F 34.2 °F 30.9 °F 65% 29.73 in 10.0 mi NNW 16.1 mph 28.8 mph N/A   Clear
2:53 AM 39.9 °F 32.1 °F 32.0 °F 73% 29.75 in 10.0 mi NNW 13.8 mph 21.9 mph N/A   Clear
3:44 AM 37.4 °F 25.0 °F 30.2 °F 75% 29.79 in 10.0 mi North 29.9 mph 50.6 mph N/A   Mostly Cloudy
3:53 AM 37.9 °F 26.6 °F 30.0 °F 73% 29.79 in 10.0 mi NNW 25.3 mph 46.0 mph N/A   Mostly Cloudy
4:26 AM 35.6 °F 23.7 °F 26.6 °F 70% 29.81 in 10.0 mi North 24.2 mph 36.8 mph N/A   Scattered Clouds
4:53 AM 34.0 °F 20.5 °F 27.0 °F 75% 29.83 in 10.0 mi North 28.8 mph 39.1 mph N/A   Mostly Cloudy
5:29 AM 33.8 °F 21.9 °F 24.8 °F 70% 29.83 in 10.0 mi North 21.9 mph 42.6 mph N/A   Overcast
5:38 AM 33.8 °F 21.0 °F 26.6 °F 75% 29.84 in 10.0 mi North 25.3 mph 36.8 mph N/A   Overcast
5:53 AM 33.1 °F 19.3 °F 25.0 °F 72% 29.88 in 10.0 mi North 28.8 mph 38.0 mph N/A   Overcast
6:17 AM 33.8 °F 20.1 °F 24.8 °F 70% 29.85 in 10.0 mi North 29.9 mph 43.7 mph N/A   Overcast
6:53 AM 32.0 °F 17.6 °F 23.0 °F 69% 29.92 in 10.0 mi North 29.9 mph 44.9 mph N/A   Overcast
7:04 AM 32.0 °F 17.6 °F 21.2 °F 64% 29.89 in 10.0 mi North 29.9 mph 43.7 mph N/A   Overcast
7:26 AM 30.2 °F 15.9 °F 21.2 °F 69% 29.91 in 10.0 mi North 26.5 mph 42.6 mph N/A   Overcast
7:53 AM 30.9 °F 15.7 °F 23.0 °F 72% 29.97 in 10.0 mi North 32.2 mph 41.4 mph N/A   Overcast
8:53 AM 30.0 °F 14.9 °F 21.9 °F 72% 30.03 in 10.0 mi North 29.9 mph 43.7 mph N/A   Overcast
9:53 AM 30.0 °F 17.9 °F 21.9 °F 72% 30.10 in 10.0 mi North 18.4 mph 35.7 mph N/A   Overcast
10:53 AM 30.0 °F 14.9 °F 19.0 °F 64% 30.12 in 10.0 mi NNW 29.9 mph 40.3 mph N/A   Overcast
11:11 AM 28.4 °F 12.7 °F 17.6 °F 64% 30.05 in 10.0 mi North 29.9 mph 42.6 mph N/A   Overcast
11:53 AM 28.0 °F 12.8 °F 18.0 °F 66% 30.14 in 10.0 mi NNW 27.6 mph 39.1 mph N/A   Overcast
12:09 PM 28.4 °F 13.5 °F 17.6 °F 64% 30.06 in 10.0 mi NNW 26.5 mph 39.1 mph N/A   Overcast
12:53 PM 28.9 °F 13.7 °F 14.0 °F 54% 30.14 in 10.0 mi North 28.8 mph 43.7 mph N/A   Overcast
1:53 PM 28.9 °F 14.5 °F 12.0 °F 49% 30.12 in 10.0 mi NNW 25.3 mph 35.7 mph N/A   Overcast
2:53 PM 27.0 °F 13.2 °F 9.0 °F 47% 30.14 in 10.0 mi NNW 20.7 mph 36.8 mph N/A   Mostly Cloudy
3:53 PM 25.0 °F 10.2 °F 9.0 °F 51% 30.17 in 10.0 mi NNW 21.9 mph 32.2 mph N/A   Mostly Cloudy
4:53 PM 23.0 °F 10.1 °F 8.1 °F 53% 30.19 in 10.0 mi NNW 15.0 mph 28.8 mph N/A   Overcast
5:53 PM 19.9 °F 3.5 °F 1.0 °F 44% 30.21 in 10.0 mi NNW 21.9 mph 26.5 mph N/A   Overcast
6:53 PM 18.0 °F 3.1 °F -0.9 °F 44% 30.23 in 10.0 mi NNW 16.1 mph 26.5 mph 0.00 in   Partly Cloudy
7:53 PM 15.1 °F 1.8 °F -0.0 °F 51% 30.23 in 10.0 mi NNW 11.5 mph - N/A   Clear
8:53 PM 12.9 °F -0.2 °F -0.0 °F 56% 30.23 in 10.0 mi NW 10.4 mph - N/A   Mostly Cloudy
9:53 PM 14.0 °F -0.8 °F 3.0 °F 62% 30.22 in 10.0 mi NW 13.8 mph - N/A   Overcast
10:53 PM 12.0 °F -3.4 °F 3.0 °F 67% 30.22 in 10.0 mi WNW 13.8 mph - N/A   Partly Cloudy
11:53 PM 12.0 °F -4.0 °F 3.0 °F 67% 30.22 in 10.0 mi NNW 15.0 mph - N/A   Partly Cloudy